Погода во Фримонте

США     37°32′12″N   121°57′38″W
темп.,
°C
ветер,
м/с
пор.,
м/с
влажн.,
%
обл.,
%
осадки,
мм/ч
давл.,
гПа
погр.,
м
16 октября, сб
сб1623:00+19вюв11265 0.0 101811
02:00+18вюв11280 0.0 101815
05:00+17вюв11291 0.0 101711
08:00+16в11315 0.0 101711
11:00+23сз01200 0.0 1016268
14:00+28сз11140 0.0 1013437
17:00+26сз45160 0.0 1013443
20:00+21ссз112247 0.0 101427
17 октября, вс
вс1723:00+19ююв11245 0.0 101411
02:00+17ююв22225 0.0 101367
05:00+16ююв1125100 0.0 101230
08:00+16ююв132798 0.0 1012114
11:00+21ю362873 0.0 10121021
14:00+23ююз6924100 0.0 10101747
17:00+18зюз7948100 0.0 10111218
20:00+13зсз5977100 1.4 1013901
18 октября, пн
пн1823:00+13з46726 1.9 1015851
02:00+12юз25727 0.1 1015759
05:00+11зюз137434 0.2 1016644
08:00+12з137216 0.0 1018576
11:00+14зсз23547 0.0 10181247
14:00+16сз44435 0.0 10171267
17:00+15сз44450 0.0 10161032
20:00+13сз23585 0.0 1016449
19 октября, вт
вт1923:00+12сз23650 0.0 1017343
02:00+11всв01690 0.0 1016142
05:00+11вюв11660 0.0 101668
08:00+11вюв12560 0.0 1016104
11:00+16ююв12360 0.0 1016567
14:00+21ююз352592 0.0 10141695
17:00+20юз452750 0.0 10141281
20:00+16ю2534100 0.0 1015517
20 октября, ср
ср2023:00+14ююв3641100 0.0 1016304
02:00+14ююв3645100 0.0 1017301
05:00+14юв3646100 0.1 1017314
08:00+15юв3739100 0.0 1017312
11:00+18ю243999 0.0 1019493
14:00+21зсз134254 0.1 1018824
17:00+19зсз2250100 0.1 1017381
20:00+18сз1152100 0.0 1019201